621  
NZUS99 KSGF 151107  
HRRSGF  
 
HOURLY WEATHER  
NATIONAL WEATHER SERVICE SPRINGFIELD MO  
600 AM CDT SAT AUG 15 2020  
   
.....SGF CWA...
 
 
 
CITY SKY/WX TMP DP RH WIND PRES REMARKS  
SPRINGFIELD CLEAR 71 69 93 SE3 29.97R  
JOPLIN CLEAR 71 69 93 N3 29.97R  
WEST PLAINS CLOUDY 68 66 93 CALM 30.00S FOG  
ROLLA CLEAR 67 66 97 CALM 30.01R FOG  
OSAGE BEACH CLEAR 68 68 100 NE3 30.00R FOG  
BRANSON CLEAR 68 68 100 CALM 29.99R  
   
.....SURROUNDING SGF CWA...
 
 
 
CITY SKY/WX TMP DP RH WIND PRES REMARKS  
CHANUTE PTCLDY 74 71 91 NW3 29.97S  
PARSONS CLEAR 73 70 90 N3 29.97R  
COFFEYVILLE CLEAR 74 71 91 W6 29.95R  
EMPORIA PTCLDY 72 72 100 W3 29.99R  
GROVE OK CLEAR 72 70 94 CALM 29.94R  
ROGERS AR CLEAR 72 71 97 E3 29.98S  
SILOAM SPRINGS CLEAR 70 70 100 CALM 29.97R  
HARRISON AR CLEAR 69 69 100 S3 29.98S  
NEAR YELLVILLE CLEAR 71 70 96 CALM 29.96S  
   
.....KANSAS AND MISSOURI...
 
 
 
CITY SKY/WX TMP DP RH WIND PRES REMARKS  
KANSAS CTY INT MOCLDY 75 72 90 SE3 29.97S  
DOWNTOWN KC MOCLDY 77 70 79 SE6 29.95S  
COLUMBIA PTCLDY 70 67 90 E5 29.99R  
SEDALIA PTCLDY 69 67 93 CALM 30.00R FOG  
ST JOSEPH CLOUDY 75 73 93 W5 29.97R THUNDER  
ST LOUIS PTCLDY 74 71 91 CALM 29.97S  
SPIRIT OF STL MOCLDY 71 69 93 W3 29.96S  
KIRKSVILLE CLOUDY 71 68 90 CALM 29.98S  
WICHITA MOCLDY 78 69 73 N5 29.99R  
TOPEKA MOCLDY 74 71 91 NW7 29.97R  
OLATHE MOCLDY 73 72 96 SE3 29.98R  
   
.....TENNESSEE...
 
 
 
CITY SKY/WX TMP DP RH WIND PRES REMARKS  
MEMPHIS PTCLDY 74 73 97 NW6 29.92R  
NASHVILLE FOG 73 70 90 VRB6 29.91S VSB 1/2  
   
.....ARKANSAS....
 
 
 
CITY SKY/WX TMP DP RH WIND PRES REMARKS  
FAYETTEVILLE CLEAR 67 67 100 CALM 29.97R  
FT SMITH PTCLDY 73 71 93 E3 29.93S  
LITTLE ROCK CLEAR 74 72 93 SW6 29.93R  
   
.....OKLAHOMA....
 
 
 
CITY SKY/WX TMP DP RH WIND PRES REMARKS  
TULSA CLEAR 75 71 87 E6 29.91R  
PONCA CITY MOCLDY 75 70 84 N9 29.97R  
MCALESTER CLEAR 73 71 93 CALM 29.94F  
OKLAHOMA CITY PTCLDY 74 70 87 S6 29.93S  
   
.....IOWA.........
 
 
 
CITY SKY/WX TMP DP RH WIND PRES REMARKS  
DES MOINES PTCLDY 66 59 78 N12 30.00R  
QUAD CITIES CLOUDY 68 65 90 CALM 29.94R  
   
.....ILLINOIS.....
 
 
 
CITY SKY/WX TMP DP RH WIND PRES REMARKS  
QUINCY MOCLDY 66 63 90 S6 29.94F  
CHICAGO MOCLDY 71 66 84 NW3 29.94F  
 
 
 
CLICK HERE TO GO TO PREVIOUS BULLETINS.

The Nexlab MO Page
The Nexlab KS Page Main Text Page